sat.trackr.live / text

‹ back to catalog

STARLINK-33723

NORAD 63593 · 2025-076AA

PAYLOAD ACTIVE UNKNOWN

§ Identity

Operator
Country
US
Launch date
2025-04-14
Launch site
AFETR
Launch vehicle
Mass (kg)
RCS (m²)

Purposes: comms

External: N2YO · Heavens-Above · Gunter

§ Orbital elements

Epoch: 2026-09-20T10:04:30.508320Z

Period
94.27 min
Inclination
42.9994°
Eccentricity
0.0001337
Mean motion
15.27586048 rev/d
Perigee alt
482.1 km
Apogee alt
483.9 km
Semi-major
6,861.2 km
B*
2.7777e-4
RAAN
301.7978°
Arg perigee
282.7347°
Mean anomaly
77.3355°
Rev number
8,161

§ Raw data

STARLINK-337231 63593U 25076AA  26263.41979755  .00007391  00000+0  27777-3 0  99942 63593  42.9994 301.7978 0001337 282.7347  77.3355 15.27586048 81619

JSON: /api/v1/satellites/63593 · /tle

For live sub-satellite position, see the globe view (requires WebGL).

§ Visibility from observer

Set your observer location to see the next 7 days of passes ≥ 10°. The values pass through the URL so the page stays shareable.

No JS? Fill the form by hand. The geolocation button needs JavaScript.